Perry, FL

9:06 PM EST on February 21, 2017 (GMT -0500)
Perry

Weather History for K40J - January, 2013

Change the Weather History Date:

Wednesday, January 23, 2013

  Actual Average (KVLD) Record (KVLD)
Temperature  
Mean Temperature 48 °F -  
Max Temperature 66 °F 61 °F 67 °F (2015)
Min Temperature 30 °F 38 °F 33 °F (2016)
Degree Days  
Heating Degree Days 17    
Moisture  
Dew Point 33 °F    
Average Humidity 64    
Maximum Humidity 93    
Minimum Humidity 29    
Precipitation  
Precipitation 0.02 in - - ()
Sea Level Pressure  
Sea Level Pressure 30.35 in    
Wind  
Wind Speed 1 mph (North)    
Max Wind Speed 8 mph    
Max Gust Speed -    
Averages and records for this station are not official NWS values.
T = Trace of Precipitation, MM = Missing Value Source: NWS Daily Summary

Daily Weather History Graph

Daily Weather History Graph

Search for Another Location

Airport or City:

Trip Planner

Search our weather history database for the weather conditions in past years. The results will help you decide how hot, cold, wet, or windy it might be!

Date:

Astronomy

Jan. 23, 2013 Rise Set
Actual Time 7:28 AM EST 6:03 PM EST
Civil Twilight 7:03 AM EST 6:29 PM EST
Nautical Twilight 6:34 AM EST 6:58 PM EST
Astronomical Twilight 6:05 AM EST 7:26 PM EST
Moon 3:16 PM EST (1/23) 4:36 AM EST (1/23)
Length of Visible Light 11h 25m
Length of Day
10h 34m
Waxing Gibbous, 89% of the Moon is Illuminated
Jan 23
Waxing Gibbous
Jan 26
Full
Feb 3
Last Quarter
Feb 10
New
Feb 17
First Quarter

Hourly Weather History & Observations

Time (EST) Temp. Windchill Dew Point Humidity Pressure Visibility Wind Dir Wind Speed Gust Speed Precip Events Conditions
12:53 AM 35.1 °F - 30.0 °F 82% 30.33 in - Calm Calm - N/A   Unknown
1:53 AM 35.1 °F - 30.0 °F 82% 30.34 in - Calm Calm - N/A   Unknown
2:53 AM 33.1 °F - 28.0 °F 82% 30.33 in - Calm Calm - N/A   Unknown
3:53 AM 32.0 °F - 28.0 °F 85% 30.34 in - Calm Calm - N/A   Unknown
4:53 AM 32.0 °F - 28.0 °F 85% 30.33 in - Calm Calm - N/A   Unknown
5:53 AM 30.9 °F - 28.0 °F 89% 30.34 in - Calm Calm - N/A   Unknown
6:53 AM 30.9 °F - 26.1 °F 82% 30.37 in - Calm Calm - N/A   Unknown
7:53 AM 30.0 °F - 28.0 °F 92% 30.39 in - Calm Calm - N/A   Unknown
8:53 AM 42.1 °F 40.2 °F 32.0 °F 67% 30.41 in - North 3.5 mph - N/A   Unknown
9:53 AM 48.0 °F - 27.0 °F 44% 30.43 in - NE 8.1 mph - N/A   Unknown
10:53 AM 54.0 °F - 27.0 °F 35% 30.43 in - Variable 4.6 mph - N/A   Unknown
11:53 AM 59.0 °F - 27.0 °F 29% 30.41 in - North 6.9 mph - 0.01 in   Unknown
12:53 PM 63.0 °F - 32.0 °F 31% 30.37 in - North 8.1 mph - 0.01 in   Unknown
1:53 PM 63.0 °F - 33.1 °F 33% 30.33 in - NW 6.9 mph - N/A   Unknown
2:53 PM 64.9 °F - 34.0 °F 32% 30.31 in - Calm Calm - N/A   Unknown
3:53 PM 66.0 °F - 35.1 °F 32% 30.30 in - NNE 3.5 mph - N/A   Unknown
4:53 PM 64.9 °F - 35.1 °F 33% 30.31 in - NW 3.5 mph - N/A   Unknown
5:53 PM 60.1 °F - 37.0 °F 42% 30.31 in - Calm Calm - N/A   Unknown
6:53 PM 53.1 °F - 39.0 °F 59% 30.32 in - Calm Calm - N/A   Unknown
7:53 PM 50.0 °F - 41.0 °F 71% 30.30 in - Calm Calm - N/A   Unknown
8:53 PM 45.0 °F - 39.9 °F 82% 30.32 in - Calm Calm - N/A   Unknown
9:53 PM 44.1 °F - 39.0 °F 82% 30.33 in - Calm Calm - N/A   Unknown
10:53 PM 41.0 °F - 37.9 °F 89% 30.34 in - Calm Calm - N/A   Unknown
11:53 PM 39.9 °F - 37.9 °F 93% 30.31 in - Calm Calm - N/A   Unknown